Погода в Салемале

Россия / Ямало-Ненецкий автономный округ     66°45′41″N   69°09′18″E
темп.,
°C
ветер,
м/с
пор.,
м/с
влажн.,
%
обл.,
%
осадки,
мм/ч
давл.,
гПа
погр.,
м
29 июня, ср
ср2923:00+7ссв1016560 0.0 1008251
02:00+4ссз11167345 0.0 1009275
05:00+4ссз1116645 0.0 1008323
08:00+5с11156747 0.0 1007294
11:00+7с11146467 0.0 1007342
14:00+4с101380100 0.0 1008313
17:00+5ссз10127924 0.0 1009289
20:00+7ссз9136421 0.0 1008314
30 июня, чт
чт3023:00+6с913685 0.0 1009176
02:00+4с8127653 0.0 1011186
05:00+4с9137599 0.0 1011233
08:00+5ссв91261100 0.0 1012229
11:00+8ссв912535 0.0 1012263
14:00+10ссв913572 0.0 1012317
17:00+10ссв9125845 0.0 1012345
20:00+8с91367100 0.0 1012253
1 июля, пт
пт123:00+6с8117459 0.0 1013113
02:00+5ссз6975100 0.0 101286
05:00+5с796798 0.0 1012102
08:00+6с6861100 0.0 1011110
11:00+6с6758100 0.0 1011114
14:00+8с685985 0.0 1010182
17:00+9с675726 0.0 1009189
20:00+8ссз565969 0.0 100992
2 июля, сб
сб223:00+7ссз667399 0.0 100855
02:00+5ссз459166 0.0 100838
05:00+6с4594100 0.4 100757
08:00+5с5599100 3.4 100780
11:00+5с5799100 5.1 1007109
14:00+5ссв6898100 1.4 1008140
17:00+5с5793100 2.3 1009172
20:00+5ссв5587100 0.1 1010128
3 июля, вс
вс323:00+5с688180 0.1 101096
02:00+4с71181100 0.0 1010154
05:00+4с81181100 0.3 1011160
08:00+5с81178100 0.1 1012180
11:00+7с79667 0.1 1012250
14:00+9ссв675816 0.0 1012317
17:00+10с685542 0.0 1012327
20:00+8с8106411 0.0 1012149